Date,TemperatureHighF,TemperatureAvgF,TemperatureLowF,DewpointHighF,DewpointAvgF,DewpointLowF,HumidityHigh,HumidityAvg,HumidityLow,PressureMaxIn,PressureMinIn,WindSpeedMaxMPH,WindSpeedAvgMPH,GustSpeedMaxMPH,PrecipitationSumIn
2013-2-5,-200.0,0.0,200.0,-99.9,-99.9,-99.9,0,0,100,0.00,40.00,0,-999,0,0.00
2013-2-6,42.7,31.6,18.9,19.9,11.6,-99.9,67,46,38,30.09,29.89,8,-19,0,0.00
2013-2-7,51.2,26.3,11.8,13.2,5.3,-10.8,77,48,10,30.13,29.93,3,0,0,0.00
2013-2-8,66.7,25.9,11.1,40.3,7.5,-1.2,70,48,18,29.93,26.93,2,0,0,0.00
2013-2-9,21.6,16.6,9.6,16.4,10.1,-99.9,83,78,72,27.51,27.05,3,-12,0,0.00
2013-2-10,24.8,8.8,-4.9,12.5,1.2,-10.8,79,71,57,28.20,27.52,5,0,0,0.00
2013-2-11,41.3,6.0,-6.1,18.2,-4.3,-11.9,78,64,35,28.52,28.21,8,0,0,0.00
2013-2-12,31.6,7.2,-8.1,10.5,-3.1,-14.1,79,65,36,28.79,28.53,8,2,0,0.00
2013-2-13,19.4,12.4,6.4,14.5,8.2,1.6,86,83,79,28.93,28.77,16,2,0,0.00
2013-2-14,28.0,14.7,9.7,24.7,10.8,5.4,90,84,78,29.12,28.90,6,0,0,0.00
2013-2-15,23.2,12.0,6.3,15.9,6.7,2.0,83,79,69,29.34,29.12,0,0,0,0.00
2013-2-16,36.9,19.6,7.6,20.5,9.9,3.8,85,67,50,29.35,29.17,11,2,0,0.00
2013-2-17,45.8,23.2,11.0,18.4,8.2,0.1,69,54,33,29.16,28.83,18,3,0,0.00
2013-3-2,51.7,33.7,24.5,30.0,20.2,14.0,73,59,42,29.56,29.34,13,4,0,0.00
2013-3-3,39.0,26.4,22.3,26.3,19.7,15.1,91,76,58,29.32,29.07,13,4,0,0.00
2013-3-4,22.0,11.1,-0.6,18.2,5.3,-5.5,88,77,60,29.41,29.01,16,4,0,0.00
2013-3-5,46.8,21.0,0.3,11.8,-2.2,-10.8,81,42,15,29.52,29.40,10,3,0,0.00
2013-3-6,54.9,33.4,17.8,20.5,10.3,-6.5,57,40,21,29.47,29.31,18,5,0,0.00
2013-3-7,57.7,35.5,24.4,22.6,14.0,6.0,57,43,23,29.48,29.35,19,4,0,0.00
2013-3-8,55.9,32.3,22.5,21.4,13.3,5.6,84,48,21,29.46,29.15,13,2,0,0.00
2013-3-9,30.6,20.2,9.5,19.3,12.5,3.6,87,72,53,29.51,29.11,10,2,0,0.00
2013-3-10,44.8,20.2,6.8,22.0,8.3,1.1,78,62,36,29.63,29.50,8,3,0,0.00
2013-3-11,25.2,19.5,14.9,21.6,15.5,9.0,90,84,71,29.60,29.45,13,4,0,0.00
2013-3-12,34.0,23.5,13.5,26.2,18.8,10.3,89,82,65,29.80,29.60,11,5,0,0.00
2013-3-13,51.0,31.9,21.9,30.4,22.4,18.7,89,70,43,29.96,29.78,18,5,0,0.00
2013-3-14,57.9,36.5,21.9,28.8,20.3,14.9,76,54,29,29.99,29.87,11,3,0,0.00
2013-3-15,50.2,38.5,31.3,28.0,21.6,17.7,71,51,39,29.86,29.66,16,5,0,0.00
2013-3-16,44.3,30.7,21.3,23.7,16.0,4.1,76,55,37,29.66,29.43,13,4,0,0.00
2013-3-17,41.4,20.2,6.2,19.9,7.7,-3.0,86,59,40,29.43,29.10,22,6,0,0.00
2013-3-18,21.7,12.4,3.7,13.7,3.9,-3.0,83,68,56,29.47,29.34,18,5,0,0.00
2013-3-19,34.0,18.5,5.1,4.4,-2.1,-9.3,70,43,21,29.84,29.42,22,6,0,0.00
2013-3-20,44.2,24.0,10.9,22.2,8.1,-10.3,90,55,26,29.82,29.44,18,5,0,0.00
2013-3-21,26.7,19.9,6.7,24.4,16.3,1.9,92,86,77,29.44,29.25,14,4,0,0.00
2013-3-22,24.5,10.4,0.9,13.1,2.5,-3.8,83,71,50,29.41,29.30,10,2,0,0.00
2013-3-23,16.4,4.7,-3.5,6.9,-1.6,-8.9,79,75,60,29.59,29.34,5,1,0,0.00
2013-3-24,14.6,3.0,-2.0,11.4,-3.4,-7.2,87,74,56,29.64,29.51,8,2,0,0.36
2013-3-25,25.0,8.7,-4.2,6.3,-1.8,-8.1,87,64,35,29.74,29.62,10,2,0,0.07
2013-3-26,32.5,21.2,4.3,22.4,12.2,-4.8,77,68,57,29.71,29.63,8,3,0,0.04
2013-3-27,42.4,28.2,18.7,23.0,19.8,15.2,98,73,40,29.82,29.67,15,2,0,0.02
2013-3-28,46.2,31.8,20.5,23.2,19.2,16.3,88,63,33,29.92,29.79,9,2,0,0.00
2013-3-29,42.6,32.2,24.3,28.3,23.0,19.3,94,69,52,29.93,29.88,8,3,0,0.01
2013-3-30,42.3,29.2,16.0,26.3,20.2,8.0,87,70,49,29.95,29.84,8,3,0,0.00
2013-3-31,46.6,31.2,14.4,16.8,13.2,7.9,86,51,25,29.93,29.81,9,3,0,0.00
2013-4-1,47.5,32.5,21.6,29.8,19.5,9.8,98,62,28,29.83,29.72,7,2,0,0.00
2013-4-2,37.9,28.2,22.1,29.2,26.3,21.1,99,93,70,29.81,29.71,0,0,0,0.01
2013-4-3,47.1,30.1,16.5,27.8,19.9,13.1,99,71,30,29.95,29.78,6,1,0,0.41
2013-4-4,50.5,34.4,19.9,30.2,23.0,18.5,99,68,33,29.95,29.84,5,1,0,0.07
2013-4-5,46.8,34.2,25.0,31.4,23.4,16.9,98,68,38,29.84,29.60,9,4,0,0.00
2013-4-6,40.3,28.5,19.9,28.8,23.1,18.9,97,81,48,29.70,29.64,11,4,0,0.13
2013-4-7,37.8,28.2,23.9,27.5,25.2,22.4,97,89,63,29.65,29.46,6,2,0,0.50
2013-4-8,44.8,27.1,10.0,28.5,21.2,7.9,99,81,50,29.46,29.25,7,2,0,0.21
2013-4-9,13.3,3.7,-4.9,7.2,-1.1,-8.0,91,80,65,29.57,29.34,5,1,0,0.00
2013-4-10,30.2,11.6,-4.7,14.1,4.8,-7.6,91,75,46,29.58,29.50,7,2,0,0.17
2013-4-11,34.9,23.8,14.4,26.5,20.5,12.5,97,88,67,29.57,29.46,5,1,0,0.00
2013-4-12,39.9,26.8,19.9,24.8,19.0,10.5,97,75,40,29.66,29.54,5,1,0,0.04
2013-4-13,35.8,27.8,19.4,27.2,19.6,10.4,99,73,41,29.59,29.21,11,3,0,0.00
2013-4-14,23.9,14.5,7.7,15.5,8.8,4.7,94,79,49,29.28,29.15,3,0,0,0.00
2013-4-21,42.4,33.8,26.6,27.8,22.8,18.0,89,65,49,29.78,29.72,11,3,0,0.56
2013-4-22,40.3,22.1,4.3,25.6,17.7,1.8,98,84,54,29.75,29.61,7,2,0,0.36
2013-4-23,31.8,14.4,-1.1,14.8,5.5,-4.0,91,70,42,29.75,29.65,6,2,0,0.05
2013-4-24,32.5,20.6,7.3,12.8,7.3,1.9,79,58,38,29.92,29.72,8,3,0,0.08
2013-4-25,45.1,29.7,13.6,15.3,8.5,-0.1,61,42,24,29.89,29.73,9,3,0,0.00
2013-4-26,51.8,35.1,21.2,17.4,10.3,3.4,52,37,22,30.08,29.83,7,2,0,0.00
2013-4-27,51.6,38.5,26.8,21.7,15.3,8.4,54,39,27,30.07,29.92,9,3,0,0.00
2013-4-28,54.7,41.3,30.7,27.8,23.4,16.9,67,50,32,29.92,29.77,10,3,0,0.00
2013-4-29,51.8,41.0,30.0,24.1,21.4,17.5,72,47,29,29.78,29.50,10,4,0,0.00
2013-4-30,45.7,34.9,22.3,30.5,25.6,18.8,96,70,50,29.69,29.49,8,2,0,0.00
2013-5-1,32.7,20.3,6.3,20.2,14.8,4.0,99,80,53,30.14,29.68,0,0,0,0.00
2013-5-2,37.2,19.8,2.7,15.6,7.4,0.2,91,62,32,30.25,30.12,5,1,0,0.00
2013-5-3,50.4,31.4,14.0,22.3,12.7,5.3,76,50,22,30.13,29.86,6,2,0,0.01
2013-5-4,45.7,33.0,23.9,26.9,23.7,20.9,91,70,39,29.92,29.83,8,2,0,0.00
2013-5-5,52.7,34.0,22.6,32.3,25.8,21.2,97,75,31,29.91,29.84,5,2,0,0.00
2013-5-6,53.2,35.8,27.5,32.2,29.2,25.3,99,80,37,29.86,29.78,8,1,0,0.06
2013-5-7,49.3,36.7,28.9,33.4,29.2,24.2,99,77,41,29.84,29.76,7,2,0,0.02
2013-5-8,48.6,34.8,26.4,35.3,30.1,24.4,99,84,48,29.90,29.79,11,2,0,0.12
2013-5-9,47.8,36.2,28.0,32.7,30.2,26.3,99,81,44,30.01,29.89,8,2,0,0.13
2013-5-10,49.5,36.0,24.4,28.2,25.1,20.9,99,69,35,30.21,29.99,7,2,0,0.00
2013-5-11,52.2,38.4,27.0,29.1,25.0,18.7,96,62,31,30.21,30.12,8,2,0,0.00
2013-5-12,57.7,44.5,31.1,29.5,27.2,24.6,79,53,33,30.15,30.09,6,2,0,0.00
2013-5-13,63.0,50.0,37.9,32.7,29.9,26.6,69,48,29,30.18,30.05,5,2,0,0.00
2013-5-14,64.2,50.6,39.0,33.3,28.7,25.4,75,45,25,30.04,29.91,7,1,0,0.00
2013-5-15,64.4,44.3,36.9,39.1,34.3,27.8,99,72,30,29.96,29.84,4,1,0,0.07
2013-5-16,60.6,45.2,35.8,38.2,33.4,25.0,99,69,27,29.86,29.75,9,2,0,0.02
2013-5-17,60.8,47.6,36.0,33.4,25.1,14.5,84,46,24,29.81,29.76,8,2,0,0.00
2013-5-18,51.1,38.1,30.9,34.7,28.6,20.0,99,71,42,29.80,29.71,6,2,0,0.10
2013-5-19,38.3,32.4,28.6,34.6,31.0,28.4,99,95,81,29.71,29.65,7,3,0,0.10
2013-5-20,36.1,32.0,27.3,33.7,30.1,24.3,99,93,84,29.84,29.67,7,2,0,0.60
2013-5-21,44.2,33.5,22.5,31.3,27.1,21.5,98,78,55,29.85,29.77,7,3,0,0.01
2013-5-22,61.5,44.6,31.5,34.5,29.4,21.1,96,60,25,29.84,29.75,7,2,0,0.00
2013-5-23,65.8,47.8,32.4,37.7,29.7,14.0,99,60,19,29.84,29.75,10,3,0,0.00
2013-5-24,60.1,48.0,33.6,26.8,21.4,15.2,69,37,22,29.96,29.76,14,3,0,0.00
2013-5-25,64.2,51.0,35.1,25.9,19.4,13.9,50,30,17,29.92,29.87,9,2,0,0.00
2013-5-26,66.0,52.5,38.3,29.3,19.7,12.6,38,28,19,29.88,29.81,7,2,0,0.00
2013-5-27,60.4,47.5,36.0,29.6,22.0,13.7,59,37,27,29.81,29.69,9,2,0,0.00
2013-5-28,55.2,43.4,30.2,35.0,25.4,13.8,96,51,36,29.74,29.53,9,2,0,0.02
2013-5-29,40.6,34.1,30.7,38.2,33.2,30.5,99,96,88,29.54,29.46,10,2,0,0.26
2013-5-30,44.4,34.3,28.4,30.5,25.7,17.7,99,74,39,29.66,29.47,12,5,0,0.15
2013-5-31,44.1,35.2,25.7,27.3,22.1,18.9,80,60,40,29.92,29.61,17,5,0,0.00
2013-6-1,48.9,38.1,29.5,36.1,31.0,26.5,99,77,55,30.06,29.91,7,2,0,0.03
2013-6-2,67.8,50.4,32.2,31.7,27.2,19.8,82,45,22,30.03,29.78,10,2,0,0.00
2013-6-3,63.0,51.2,37.4,34.7,23.3,13.4,53,34,21,29.89,29.71,12,4,0,0.00
2013-6-4,63.9,45.9,32.4,37.3,24.7,15.4,95,48,24,29.99,29.87,7,3,0,0.00
2013-6-5,58.6,44.6,29.8,35.7,29.1,21.3,99,61,27,29.99,29.93,7,2,0,0.00
2013-6-6,64.4,46.8,34.0,32.4,25.9,20.8,59,45,28,30.02,29.94,5,2,0,0.00
2013-6-8,61.7,52.9,41.0,34.9,30.8,25.6,65,44,32,29.95,29.79,7,2,0,0.00
2013-6-9,75.2,56.7,39.6,36.3,30.6,24.3,58,39,20,30.00,29.95,8,2,0,0.00
2013-6-10,80.1,63.2,47.3,35.9,30.9,27.2,47,31,18,29.99,29.92,9,3,0,0.00
2013-6-11,74.5,60.2,49.6,29.7,24.3,18.8,39,26,15,30.04,29.90,13,4,0,0.00
2013-6-12,76.3,59.8,41.2,33.4,26.8,21.8,56,31,17,30.11,30.04,9,3,0,0.00
2013-6-13,72.9,60.4,50.2,34.6,28.6,21.9,40,30,22,30.08,29.90,12,3,0,0.00
2013-6-14,70.9,55.5,39.6,29.7,24.6,16.4,65,33,13,29.99,29.89,10,3,0,0.00
2013-6-15,73.0,54.7,37.0,25.6,17.8,9.7,48,25,13,30.02,29.94,8,2,0,0.00
2013-6-16,71.8,52.0,41.2,41.7,26.8,14.2,85,41,18,30.14,30.01,8,2,0,0.05
2013-6-17,70.7,54.4,39.2,37.2,31.3,21.0,78,47,17,30.09,30.01,6,2,0,0.00
2013-6-18,74.5,55.6,40.5,38.3,33.3,20.7,87,49,17,30.05,29.86,7,2,0,0.00
2013-6-19,75.6,58.1,39.2,38.5,24.1,12.0,85,35,11,29.88,29.73,10,3,0,0.00
2013-6-20,73.2,55.5,36.0,26.7,20.8,10.4,48,27,15,29.91,29.79,9,3,0,0.00
2013-6-21,72.5,57.0,42.8,32.2,20.7,14.2,62,28,14,29.91,29.85,12,3,0,0.00
2013-6-22,71.8,53.5,38.5,29.6,24.2,16.5,64,34,19,29.88,29.78,8,3,0,0.00
2013-6-23,71.4,53.1,34.3,29.7,22.9,16.7,58,34,16,29.91,29.82,9,2,0,0.00
2013-6-24,73.8,57.3,41.5,30.4,25.9,18.7,60,34,14,29.85,29.78,12,3,0,0.00
2013-6-25,66.0,56.6,45.9,37.1,33.0,27.2,54,41,33,30.05,29.81,9,3,0,0.00
2013-6-26,79.0,61.5,44.2,39.1,33.4,25.1,65,38,20,30.21,30.04,9,2,0,0.00
2013-6-27,81.3,63.8,46.2,38.2,33.3,28.1,59,35,17,30.33,30.19,9,2,0,0.00
2013-6-28,82.4,67.1,53.8,45.9,34.0,25.5,73,32,13,30.33,30.24,7,2,0,0.00
2013-6-29,75.7,61.9,50.0,48.7,43.7,35.3,83,55,24,30.26,30.14,6,2,0,0.00
2013-6-30,72.9,57.9,46.4,52.3,45.0,41.4,97,65,35,30.20,30.12,6,2,0,0.02
2013-7-1,72.3,54.8,39.2,49.0,42.6,36.6,97,67,34,30.25,30.19,5,2,0,0.01
2013-7-2,75.0,56.6,41.9,45.4,38.9,31.8,96,58,22,30.22,30.12,7,2,0,0.00
2013-7-3,75.7,56.6,43.7,48.2,38.8,34.9,83,54,23,30.13,30.01,7,2,0,0.01
2013-7-4,73.9,57.6,45.9,49.2,42.4,37.4,80,59,34,30.04,29.95,5,2,0,0.02
2013-7-5,74.8,55.2,47.5,56.5,47.1,43.0,99,77,39,29.96,29.89,7,2,0,0.33
2013-7-6,72.0,61.1,47.1,52.4,43.7,36.2,99,56,28,30.01,29.90,8,2,0,0.07
2013-7-7,75.7,59.0,44.8,48.0,41.0,33.2,92,57,22,30.09,30.00,6,2,0,0.04
2013-7-8,71.6,57.4,46.4,48.7,41.0,33.1,84,56,35,30.18,30.06,6,2,0,0.00
2013-7-9,78.1,60.1,46.6,43.6,38.0,34.6,67,47,22,30.25,30.17,5,2,0,0.00
2013-7-10,80.4,63.7,47.7,43.3,36.1,29.9,69,41,17,30.24,30.09,6,2,0,0.00
2013-7-11,84.2,65.6,50.9,45.6,38.6,31.2,79,43,15,30.12,29.93,7,2,0,0.00
2013-7-12,75.4,58.6,47.7,53.6,47.4,41.2,99,70,34,30.09,29.96,6,2,0,0.73
2013-7-13,70.9,59.0,46.8,54.0,50.0,46.5,99,75,52,30.17,30.08,6,2,0,0.00
2013-7-14,68.9,55.7,45.9,54.5,49.0,44.5,99,81,47,30.20,30.13,6,2,0,0.00
2013-7-15,75.6,55.8,45.7,57.1,49.7,45.4,99,83,41,30.17,30.03,4,1,0,0.36
2013-7-16,73.8,58.9,45.9,47.0,42.3,30.2,99,61,23,30.17,30.06,8,2,0,0.00
2013-7-17,79.3,61.6,45.5,51.3,46.3,40.7,87,60,32,30.21,30.14,5,2,0,0.00
2013-7-18,76.1,59.8,49.5,55.0,48.0,43.7,98,68,39,30.22,30.15,5,2,0,0.12
2013-7-19,73.8,58.0,45.3,52.1,46.4,41.2,99,69,37,30.20,30.08,6,2,0,0.00
2013-7-20,79.3,58.9,47.5,49.1,43.3,36.1,81,60,22,30.08,29.96,6,2,0,0.00
2013-7-21,79.2,62.9,47.7,42.4,29.1,13.4,77,31,13,30.01,29.93,9,3,0,0.00
2013-7-22,79.5,63.0,48.9,26.2,16.6,8.4,30,17,10,30.07,29.98,8,2,0,0.00
2013-7-23,79.5,60.9,47.5,49.7,23.7,10.0,89,30,10,30.15,30.04,6,2,0,0.00
2013-7-24,81.3,60.7,48.2,49.1,40.2,24.7,93,58,14,30.15,30.02,5,2,0,0.02
2013-7-25,66.2,51.3,42.3,49.5,45.9,42.0,99,84,47,30.25,30.05,6,1,0,0.39
2013-7-26,70.3,55.2,39.9,46.8,40.1,34.1,99,63,32,30.27,30.17,5,2,0,0.00
2013-7-27,74.7,57.6,45.3,46.0,38.0,32.1,96,52,27,30.16,29.98,6,2,0,0.07
2013-7-28,64.0,51.5,44.6,51.4,46.5,41.1,99,84,52,29.98,29.89,4,1,0,0.11
2013-7-29,60.4,48.5,42.4,45.3,41.5,38.7,96,78,46,30.16,29.91,6,2,0,0.09
2013-7-30,68.2,54.0,41.0,48.6,42.4,38.0,99,68,39,30.28,30.15,7,2,0,0.00
2013-7-31,73.2,57.9,45.3,44.5,39.6,35.2,82,54,26,30.32,30.20,9,2,0,0.00
2013-8-1,76.1,54.6,46.6,52.3,42.9,36.6,86,68,30,30.19,30.01,6,2,0,0.13
2013-8-2,73.9,58.6,43.5,48.9,40.4,34.1,90,56,26,30.09,30.00,8,2,0,0.00
2013-8-3,77.7,59.9,47.8,42.7,38.7,35.4,70,48,25,30.16,30.08,8,2,0,0.00
2013-8-4,74.7,57.3,46.9,49.7,40.5,32.8,74,56,23,30.18,30.11,7,2,0,0.14
2013-8-5,69.3,53.6,46.0,44.6,40.9,38.2,85,64,36,30.14,30.06,5,2,0,0.02
2013-8-6,72.7,56.0,43.7,41.0,38.0,31.5,87,55,23,30.07,30.02,8,2,0,0.00
2013-8-7,75.0,56.6,42.4,41.5,35.9,22.2,77,50,15,30.07,29.96,7,2,0,0.00
2013-8-8,66.6,49.8,39.2,44.4,36.9,32.2,85,63,35,30.12,29.99,8,2,0,0.01
2013-8-9,64.0,48.1,38.7,46.6,39.7,34.8,98,75,38,30.17,30.08,7,2,0,0.07
2013-8-10,71.2,53.3,39.4,42.1,36.5,31.2,92,58,23,30.18,30.14,6,2,0,0.74
2013-8-11,64.8,53.7,46.0,42.2,38.0,33.5,75,57,34,30.19,30.11,6,2,0,0.00
2013-8-12,66.7,50.0,40.6,46.9,38.7,33.7,96,68,30,30.20,30.12,10,2,0,0.10
2013-8-13,61.3,46.0,39.4,45.7,40.7,37.5,99,83,44,30.21,30.12,6,2,0,0.31
2013-8-14,67.5,51.1,37.9,42.2,37.3,28.6,99,65,25,30.18,30.12,7,3,0,0.01
2013-8-15,73.4,57.4,45.0,37.9,29.8,26.2,66,37,19,30.20,30.11,11,3,0,0.00
2013-8-16,75.4,61.1,48.6,38.6,28.2,22.6,68,32,16,30.22,30.17,6,2,0,0.00
2013-8-17,78.4,62.9,48.2,31.5,25.6,21.2,37,25,14,30.21,30.09,6,1,0,0.00
2013-8-18,72.5,59.5,50.9,47.3,36.7,26.0,68,44,29,30.18,30.11,9,3,0,0.00
2013-8-19,82.9,62.7,46.6,42.2,33.5,23.7,71,39,15,30.21,30.09,7,2,0,0.00
2013-8-20,79.9,62.3,51.6,42.5,35.3,24.3,65,38,20,30.16,30.10,6,2,0,0.00
2013-8-21,76.1,59.0,47.7,46.2,42.5,37.9,94,56,30,30.17,30.11,7,2,0,0.00
2013-8-22,71.4,55.8,46.0,51.9,45.5,40.8,98,72,36,30.20,30.12,4,1,0,0.14
2013-8-23,73.0,55.0,44.2,52.7,45.6,41.5,99,75,37,30.14,29.99,8,2,0,0.52
2013-8-24,65.5,53.0,43.3,49.3,45.1,42.6,99,77,46,30.13,30.02,8,3,0,0.00
2013-8-25,66.0,53.4,46.2,50.5,45.3,41.7,98,75,49,30.20,30.12,6,2,0,0.01
2013-8-26,66.6,55.0,47.1,49.5,48.0,46.6,99,79,53,30.21,30.14,10,3,0,0.00
2013-8-27,77.5,59.1,47.8,49.4,46.1,39.7,95,66,27,30.20,30.12,9,2,0,0.00
2013-8-28,75.4,60.0,49.3,49.3,44.6,41.7,83,59,33,30.23,30.13,5,2,0,0.00
2013-8-29,77.2,59.9,45.3,46.7,42.6,37.4,84,56,25,30.26,30.19,6,2,0,0.00
2013-8-30,75.4,58.2,48.7,50.5,44.0,40.2,90,62,30,30.27,30.16,6,2,0,0.07
2013-8-31,76.3,59.1,46.9,46.8,43.2,40.0,82,59,28,30.18,30.08,7,2,0,0.00
2013-9-1,77.4,58.2,45.3,46.9,42.4,30.9,82,59,22,30.13,30.07,6,2,0,0.00
2013-9-2,77.0,61.5,51.8,51.3,43.9,40.7,70,54,28,30.16,30.05,12,2,0,0.02
2013-9-3,77.7,61.4,50.9,49.6,44.9,40.2,84,57,32,30.20,30.10,8,2,0,0.00
2013-9-4,76.8,61.0,49.6,49.9,44.3,39.8,98,57,31,30.28,30.19,8,2,0,0.05
2013-9-5,78.3,59.8,47.1,48.1,44.7,39.6,88,60,31,30.28,30.21,5,2,0,0.00
2013-9-6,75.7,58.5,49.1,53.5,45.3,39.6,98,64,34,30.26,30.16,8,2,0,0.10
2013-9-7,75.6,56.0,47.5,51.6,44.4,40.4,93,68,36,30.19,30.10,12,3,0,0.09
2013-9-8,71.1,55.0,44.4,53.6,45.4,41.1,99,73,38,30.11,29.94,6,2,0,0.21
2013-9-9,54.0,46.6,43.0,49.3,46.0,42.7,99,98,84,29.98,29.90,5,2,0,0.42
2013-9-10,46.6,44.6,42.1,46.3,43.6,37.5,99,96,80,30.11,29.97,6,2,0,0.27
2013-9-11,49.6,47.1,45.1,49.3,46.8,44.8,99,99,99,30.18,30.10,7,3,0,0.37
2013-9-12,52.9,47.2,45.3,52.6,46.9,45.0,99,99,98,30.22,30.10,8,4,0,2.29
2013-9-13,55.2,47.8,43.9,52.3,46.7,43.6,99,96,82,30.09,29.87,4,1,0,0.53
2013-9-14,59.7,48.1,41.2,49.1,43.9,40.9,99,87,53,29.96,29.86,7,2,0,0.22
2013-9-15,46.6,42.8,39.0,46.3,42.5,38.7,99,99,99,30.12,29.94,8,2,0,0.06
2013-9-16,63.9,47.9,39.0,48.6,41.8,38.2,99,82,46,30.08,30.00,7,2,0,0.01
2013-9-17,62.4,50.6,41.7,44.2,40.0,31.4,89,70,31,30.04,29.80,8,3,0,0.00
2013-9-18,58.3,48.5,36.3,45.0,38.3,23.4,89,69,42,29.87,29.74,11,4,0,0.00
2013-9-19,50.9,38.7,27.1,23.9,19.7,11.6,81,49,24,30.02,29.85,11,2,0,0.00
2013-9-20,62.6,45.8,30.9,28.7,19.6,11.6,53,36,17,30.01,29.95,6,2,0,0.00
2013-9-21,64.9,52.5,43.9,34.2,28.0,20.4,53,39,25,29.95,29.76,13,4,0,0.00
2013-9-22,56.8,44.2,35.8,41.6,35.9,29.9,99,75,47,29.76,29.49,11,3,0,0.04
2013-9-23,41.5,34.5,29.5,35.9,31.6,27.3,99,90,68,29.93,29.45,11,5,0,0.25
2013-9-24,58.1,43.0,28.2,32.4,26.5,18.1,99,58,22,29.99,29.79,11,3,0,0.00
2013-9-25,63.3,47.2,32.2,30.9,23.1,13.5,90,42,20,29.78,29.44,12,4,0,0.00
2013-9-26,60.3,43.6,29.1,37.1,28.7,21.9,94,61,27,29.58,29.48,8,3,0,0.00
2013-9-27,41.2,31.1,23.4,34.7,29.2,23.2,99,93,68,29.74,29.50,13,3,0,0.04
2013-9-28,40.6,29.4,19.0,30.9,24.9,18.3,99,84,65,29.98,29.75,8,4,0,0.16
2013-9-29,51.8,40.2,28.0,25.6,22.0,19.4,84,50,33,29.97,29.78,19,6,0,0.00
2013-9-30,60.4,46.8,37.0,33.4,26.2,21.0,55,45,34,29.85,29.73,15,5,0,0.00
2013-10-1,61.5,48.1,34.9,29.4,26.7,25.4,73,45,27,29.92,29.85,9,3,0,0.00
2013-10-2,58.6,46.4,37.4,28.7,25.2,23.8,62,44,28,29.90,29.71,7,2,0,0.00
2013-10-3,51.3,40.0,24.4,35.6,27.4,22.6,98,63,37,29.71,29.52,10,4,0,0.00
2013-10-4,28.4,19.7,10.9,23.9,16.5,9.5,98,88,57,29.86,29.51,4,0,0,0.00
2013-10-5,36.3,21.9,11.1,20.2,14.9,9.5,96,76,47,30.07,29.82,7,1,0,0.32
2013-10-6,47.7,33.6,20.3,29.2,23.9,16.4,93,69,44,30.13,30.04,7,3,0,0.07
2013-10-7,57.6,43.5,30.4,27.2,21.1,17.7,64,43,25,30.11,29.84,7,3,0,0.00
2013-10-8,55.0,44.3,34.7,24.2,21.2,16.8,58,40,26,29.83,29.66,10,4,0,0.00
2013-10-9,49.1,38.5,30.9,36.5,28.0,20.1,99,68,46,29.76,29.71,7,2,0,0.00
2013-10-10,46.8,34.4,28.0,35.5,30.0,25.5,99,86,43,29.71,29.32,7,2,0,0.00
2013-10-11,31.3,28.1,25.5,30.0,27.7,25.3,99,98,93,29.79,29.34,15,5,0,0.00
2013-10-12,39.6,29.8,24.1,29.7,26.1,23.1,99,87,59,29.90,29.80,7,2,0,0.00
2013-10-13,49.8,35.8,26.1,32.2,26.9,22.5,99,72,41,29.89,29.70,7,2,0,0.02
2013-10-14,36.7,26.4,17.8,32.0,24.7,17.3,99,94,79,29.86,29.62,5,1,0,0.00
2013-10-15,38.1,19.5,10.0,23.8,16.2,9.1,99,88,49,29.90,29.82,4,1,0,0.01
2013-10-16,35.6,18.9,13.6,22.7,16.4,13.1,99,91,57,29.82,29.77,7,2,0,0.01
2013-10-17,20.5,20.5,20.5,18.3,18.3,18.3,91,91,91,29.80,29.78,4,3,0,0.00
2013-10-19,41.2,36.8,29.5,22.9,21.1,20.0,68,53,45,29.83,29.74,8,5,0,0.12
2013-10-20,29.5,27.6,26.4,20.3,19.9,19.6,77,72,68,29.72,29.69,5,3,0,0.00
2013-10-22,47.5,44.8,39.9,27.1,26.1,25.2,59,48,43,30.04,29.99,5,3,0,0.09
2013-10-23,50.9,48.7,46.4,23.8,22.2,20.7,39,35,32,30.02,29.98,8,4,0,0.00
2013-10-26,50.5,36.2,26.6,23.0,21.6,20.0,82,59,30,30.13,30.05,6,1,0,0.00
2013-10-27,46.0,44.8,41.7,20.6,17.3,14.3,37,33,29,29.75,29.68,6,4,0,0.00
2013-10-28,45.3,40.8,31.3,27.1,23.3,17.0,72,51,34,29.61,29.54,9,3,0,0.00
2013-10-29,41.5,35.8,28.2,24.2,18.6,15.1,78,52,35,29.65,29.56,11,8,0,0.00
2013-10-30,23.0,21.7,19.8,22.3,21.0,19.1,98,97,97,29.53,29.48,6,3,0,0.00
2013-10-31,24.8,20.9,17.2,22.6,19.9,16.7,99,96,91,29.62,29.55,10,4,0,0.00
2013-11-1,28.0,26.4,22.1,21.9,18.9,17.6,99,73,68,29.89,29.65,8,5,0,0.00
2013-11-2,37.2,37.2,37.2,12.1,12.1,12.1,35,35,35,29.68,29.68,7,7,0,0.00
2013-11-3,41.2,28.1,11.8,18.6,14.5,8.9,95,62,33,29.49,29.35,14,8,0,0.00
2013-11-8,35.6,35.6,35.6,18.3,18.3,18.3,49,49,49,29.69,29.69,12,12,0,0.00
2013-11-10,38.5,30.0,27.0,19.2,17.3,16.0,65,59,45,30.03,30.01,6,2,0,0.09
2013-11-11,49.1,32.8,23.0,22.0,17.9,15.4,87,56,34,30.26,30.01,11,2,0,0.00
2013-11-12,48.2,31.9,20.3,24.5,17.4,6.3,93,59,31,30.33,30.20,5,2,0,0.00
2013-11-13,48.9,33.1,23.7,27.2,13.6,2.0,99,46,26,30.20,29.82,9,2,0,0.00
2013-11-14,39.4,27.6,21.0,27.0,20.0,9.7,99,75,48,29.83,29.48,7,2,0,0.12
2013-11-15,35.2,25.7,18.7,25.5,18.0,11.1,99,75,49,29.48,29.14,9,3,0,0.00
2013-11-16,23.0,18.3,15.4,22.3,17.8,14.7,99,98,95,29.14,29.04,14,5,0,0.00
2013-11-17,24.3,16.5,10.2,20.5,15.0,9.1,99,94,85,29.79,29.12,16,6,0,0.00
2013-11-18,39.4,25.9,18.1,23.6,17.5,11.8,96,73,43,29.95,29.78,10,3,0,0.20
2013-11-19,37.8,26.5,18.5,25.7,20.6,12.2,99,79,57,29.80,29.49,14,4,0,0.00
2013-11-20,34.0,25.9,21.6,27.6,23.2,20.6,99,90,69,29.61,29.53,10,3,0,0.07
2013-11-21,25.5,13.2,0.5,23.3,9.5,-7.5,99,85,66,29.99,29.57,3,1,0,0.00
2013-11-22,35.1,14.2,-2.4,3.7,-10.1,-15.9,69,35,17,30.10,29.98,4,1,0,0.00
2013-11-23,33.8,22.3,11.5,20.0,11.4,-11.3,82,64,32,30.09,29.85,6,2,0,0.04
2013-11-24,39.9,25.2,14.4,26.0,16.2,-6.4,92,70,37,29.85,29.66,6,2,0,0.08
2013-11-25,32.9,21.7,10.6,16.8,13.0,-1.4,96,70,50,29.98,29.75,4,1,0,0.00
2013-11-26,34.3,19.4,8.2,18.1,12.7,6.8,99,77,48,30.07,29.98,9,2,0,0.00
2013-11-27,42.8,24.9,11.1,17.1,13.1,9.2,94,64,35,29.99,29.88,6,2,0,0.00
2013-11-28,47.3,29.7,17.8,18.3,13.7,8.4,75,53,30,29.91,29.86,5,1,0,0.00
2013-11-29,41.0,28.1,18.0,19.1,14.8,9.3,88,58,41,29.95,29.88,11,3,0,0.00
2013-12-2,23.4,22.6,21.9,23.2,21.8,20.9,99,97,93,29.45,29.28,12,5,0,0.00
2013-12-3,23.7,17.4,2.7,22.3,15.8,-0.3,99,93,80,29.26,29.05,14,2,0,0.00
2013-12-4,5.2,-7.2,-16.6,-2.2,-11.2,-19.3,88,82,65,29.30,29.00,0,0,0,0.00
2013-12-5,12.6,-8.2,-17.3,-0.9,-13.0,-20.4,88,80,54,29.31,29.24,0,0,0,0.00
2013-12-6,-0.8,-9.8,-15.9,-2.8,-12.8,-19.0,91,86,78,29.46,29.29,0,0,0,0.00
2013-12-7,16.2,4.6,-4.7,9.2,1.4,-7.1,92,87,73,29.44,29.08,0,0,0,0.00
2013-12-8,6.1,1.6,-3.1,3.0,-2.1,-7.0,91,84,71,29.21,29.05,0,0,0,0.00
2013-12-28,25.2,16.8,11.5,16.1,12.9,9.1,92,85,63,29.70,29.61,3,0,0,0.00
2013-12-29,19.2,8.9,-5.6,9.9,4.0,-7.8,93,80,61,29.73,29.57,10,3,0,0.00
2013-12-30,21.4,14.3,9.9,16.2,11.4,8.1,93,88,79,29.84,29.62,11,4,0,0.00
2013-12-31,24.4,20.6,17.4,22.6,19.4,13.9,99,95,80,29.76,29.60,11,4,0,0.01
2014-1-1,20.7,17.9,15.1,20.5,17.2,14.6,99,97,90,29.79,29.56,7,2,0,0.00